This is the latest recevied weather packets stored in our database for station/object WX4HP-13. If no packets are shown the sender has not sent any weather packets the latest 10 day(s).
| Time | Temp. | Humidity | Pressure | Rain* | Wind** | Luminosity | Snow |
|---|---|---|---|---|---|---|---|
| 1777842295 | 20° C | 36% | 1017.8 hPa | 0 mm | - | - | - |
| 1777841996 | 20° C | 35% | 1017.7 hPa | 0 mm | - | - | - |
| 1777841695 | 20° C | 35% | 1017.9 hPa | 0 mm | - | - | - |
| 1777841395 | 19.44° C | 34% | 1018 hPa | 0 mm | - | - | - |
| 1777841096 | 19.44° C | 33% | 1018.2 hPa | 0 mm | - | - | - |
| 1777840796 | 19.44° C | 35% | 1018.1 hPa | 0 mm | - | - | - |
| 1777840495 | 20° C | 32% | 1018.2 hPa | 0 mm | - | - | - |
| 1777840195 | 20° C | 35% | 1018.2 hPa | 0 mm | - | - | - |
| 1777839895 | 20° C | 35% | 1018.3 hPa | 0 mm | - | - | - |
| 1777839595 | 20° C | 34% | 1018.3 hPa | 0 mm | - | - | - |
| 1777839295 | 19.44° C | 34% | 1018.4 hPa | 0 mm | - | - | - |
| 1777838995 | 20° C | 35% | 1018.5 hPa | 0 mm | - | - | - |
| 1777838696 | 20° C | 36% | 1018.6 hPa | 0 mm | - | - | - |
| 1777838396 | 20° C | 37% | 1018.8 hPa | 0 mm | - | - | - |
| 1777838098 | 20° C | 38% | 1018.9 hPa | 0 mm | - | - | - |
| 1777837797 | 20° C | 37% | 1019 hPa | 0 mm | - | - | - |
| 1777837497 | 20° C | 37% | 1018.9 hPa | 0 mm | - | - | - |
| 1777836897 | 19.44° C | 39% | 1019.2 hPa | 0 mm | - | - | - |
| 1777836596 | 19.44° C | 39% | 1019.4 hPa | 0 mm | - | - | - |
| 1777836296 | 19.44° C | 38% | 1019.5 hPa | 0 mm | - | - | - |
| 1777835996 | 18.89° C | 41% | 1019.6 hPa | 0 mm | - | - | - |
| 1777835697 | 18.89° C | 40% | 1019.7 hPa | 0 mm | - | - | - |
| 1777835397 | 19.44° C | 42% | 1019.7 hPa | 0 mm | - | - | - |
| 1777835097 | 19.44° C | 41% | 1019.7 hPa | 0 mm | - | - | - |
| 1777834795 | 18.89° C | 41% | 1019.8 hPa | 0 mm | - | - | - |
* Rain latest hour (hover to see other rain measurements)
** Current wind speed in m/s (hover to see current wind gust speed)